Midland International Airport
KMAF : now visible

Airfield :











YOU CAN JOIN US ON...

 
LOGIN :

Register | Disclaimer

   EN    FR    IT 

 









Legend :    VFR   Marginal VFR   IFR   Intensive IFR   Very Intensive IFR
Visi :
Ceiling :
>= 8 km
>= 3000ft
5 to 8 km
1000 to 3000 ft
1500m to 5 km
500 to 1000 ft
800 to 1500m
200 to 500 ft
< 800m
< 200 ft
Symbols :   Thunderstorms  Fog  Heavy snow  Heavy precipitations  Wind > 20 kt







- Airport Elevation : 2871 ft
- IATA code : MAF


KMAF - Midland International

CURRENT METAR :
  • 191353Z 19015KT 10SM CLR 27/18 A2998 RMK AO2 SLP097 T02720178

EXPIRED METARs :
  • 191253Z 17013KT 10SM CLR 26/17 A2997 RMK AO2 SLP092 T02610172
  • 191153Z 17011KT 10SM CLR 26/17 A2996 RMK AO2 SLP090 T02610172 10294 20261 53006

TAF KMAF
Valid from the 19 at 12:00 until the 20 at 12:00 UTC


191120Z 1912/2012 17014G20KT P6SM SKC
FM191500 18015G25KT P6SM FEW250
KZFW FIR / North America



MET'MAP, your aeronautical weather chart ! - Copyright ORBIFLY December 2007 - Disclaimer

ORBIFLY MET'MAP TEAM :

Programming & Development : Alexandra Zaïnal
Concept & Development : Baudouin d'Aumeries
Co-Development & Prog : Marc-Olivier Méhu
Technical & hardware support : Manuel Goepfert

Contact : metmap@orbifly.com




SOURCES & CREDITS :

   NOAA       Earth
Advisory